Location: Herm
(49.4830°N, 2.4500°W)
Time: 19:47:59
(UTC+00:00)

Envisat - Pass Details

Date: 03 October 2022
Orbit: 763 x 765 km, 98.2° (Epoch: 06 December)

Event Time Altitude Azimuth Distance (km) Brightness Sun altitude
Rises 06:36:12 0° 7° (N) 3,247 6.4 -6.7°
Reaches altitude 10° 06:38:40 10° 359° (N) 2,316 5.5 -6.3°
Maximum altitude 06:43:14 34° 295° (WNW) 1,240 3.7 -5.6°
Drops below altitude 10° 06:47:47 10° 232° (SW) 2,301 5.0 -4.8°
Sets 06:50:15 0° 223° (SW) 3,223 5.8 -4.4°
